This is the latest recevied weather packets stored in our database for station/object EA6AMI-5. If no packets are shown the sender has not sent any weather packets the latest 10 day(s).
| Time | Temp. | Humidity | Pressure | Rain* | Wind** | Luminosity | Snow |
|---|---|---|---|---|---|---|---|
| 1777743363 | 17.78° C | 64% | 1019.9 hPa | 0 mm | - | 39 W/m² | - |
| 1777742823 | 18.33° C | 62% | 1019.7 hPa | 0 mm | - | 46 W/m² | - |
| 1777742284 | 18.33° C | 63% | 1019.7 hPa | 0 mm | - | 50 W/m² | - |
| 1777741744 | 18.33° C | 62% | 1019.7 hPa | 0 mm | - | 50 W/m² | - |
| 1777741203 | 18.33° C | 64% | 1019.9 hPa | 0 mm | - | 54 W/m² | - |
| 1777740843 | 18.89° C | 64% | 1019.4 hPa | 0 mm | - | 54 W/m² | - |
| 1777740303 | 18.89° C | 64% | 1019.7 hPa | 0 mm | - | 66 W/m² | - |
| 1777739763 | 18.89° C | 62% | 1019.9 hPa | 0 mm | - | 83 W/m² | - |
| 1777739223 | 19.44° C | 63% | 1019.7 hPa | 0 mm | - | 89 W/m² | - |
| 1777738683 | 19.44° C | 62% | 1020.1 hPa | 0 mm | - | 108 W/m² | - |
| 1777738143 | 19.44° C | 62% | 1020.2 hPa | 0 mm | - | 118 W/m² | - |
| 1777737603 | 20° C | 58% | 1020.4 hPa | 0 mm | - | 117 W/m² | - |
| 1777737243 | 20° C | 58% | 1020.3 hPa | 0 mm | - | 121 W/m² | - |
| 1777736703 | 20.56° C | 52% | 1020.2 hPa | 0 mm | - | 126 W/m² | - |
| 1777736163 | 20.56° C | 54% | 1020.5 hPa | 0 mm | - | 163 W/m² | - |
| 1777735623 | 21.11° C | 50% | 1020.6 hPa | 0 mm | - | 231 W/m² | - |
| 1777735083 | 21.11° C | 47% | 1020.5 hPa | 0 mm | - | 257 W/m² | - |
| 1777734543 | 21.11° C | 50% | 1020.4 hPa | 0 mm | - | 278 W/m² | - |
| 1777734003 | 21.11° C | 51% | 1020.5 hPa | 0 mm | - | 253 W/m² | - |
| 1777733643 | 21.11° C | 51% | 1020.7 hPa | 0 mm | - | 244 W/m² | - |
| 1777733103 | 21.67° C | 52% | 1020.7 hPa | 0 mm | - | 263 W/m² | - |
| 1777732563 | 21.67° C | 52% | 1020.9 hPa | 0 mm | - | 292 W/m² | - |
| 1777732023 | 22.22° C | 51% | 1020.9 hPa | 0 mm | - | 335 W/m² | - |
| 1777731483 | 22.22° C | 50% | 1020.9 hPa | 0 mm | - | 311 W/m² | - |
| 1777730943 | 22.22° C | 50% | 1021.1 hPa | 0 mm | - | 345 W/m² | - |
* Rain latest hour (hover to see other rain measurements)
** Current wind speed in m/s (hover to see current wind gust speed)